Location: Hamayl? Da??
(36.7028°N, 30.1716°E)
Time: 10:33:45
(UTC+00:00)

Transit 2A - Visible Passes

Search period start: 09 December 2025 00:00
Search period end: 19 December 2025 00:00
Orbit: 590 x 955 km, 66.7° (Epoch: 08 December)

Date Brightness Start Highest point End Pass type
(mag) Time Alt. Az. Time Alt. Az. Time Alt. Az.
09 Dec 9.1 01:57:24 10° ESE 01:59:27 12° E 02:01:34 10° ENE visible
09 Dec 6.0 03:36:19 10° SSW 03:41:34 76° WNW 03:47:25 10° NNE visible
10 Dec 6.3 03:00:09 10° SSW 03:05:20 70° ESE 03:11:08 10° NNE visible
11 Dec 7.1 02:25:14 16° S 02:29:11 44° ESE 02:34:40 10° NE visible
11 Dec 7.1 04:07:58 10° WSW 04:12:30 26° NW 04:17:24 10° N visible
12 Dec 7.8 01:52:48 28° ESE 01:53:09 28° ESE 01:57:58 10° NE visible
12 Dec 6.6 03:33:18 24° WSW 03:36:00 38° NW 03:41:29 10° NNE visible
13 Dec 8.8 01:19:20 15° ENE 01:19:20 15° ENE 01:20:52 10° ENE visible
13 Dec 6.2 02:59:47 56° NW 02:59:47 56° NW 03:05:24 10° NNE visible
14 Dec 7.2 02:25:45 36° NNE 02:25:45 36° NNE 02:29:12 10° NNE visible
14 Dec 7.7 04:06:10 14° NW 04:07:22 15° NW 04:10:37 10° N visible
15 Dec 8.4 01:51:25 18° NE 01:51:25 18° NE 01:52:51 10° NE visible
15 Dec 7.6 03:31:48 20° NNW 03:31:48 20° NNW 03:35:06 10° N visible
16 Dec 7.9 02:57:14 19° N 02:57:14 19° N 02:59:17 10° N visible
17 Dec 8.5 02:22:31 14° NNE 02:22:31 14° NNE 02:23:19 10° NNE visible
